Home   Weather   Woodbridge Green Park   Past weeks
Flag for USA

Past Weather in Woodbridge Green Park, Ohio, USA — Yesterday and Last 2 Weeks

Now
32 °F

Overcast.


Feels Like: 32 °F
Forecast: 35 / 28 °F
Wind: No wind

Location: John Glenn Columbus International Airport

Current Time: Jan 17, 2019 at 2:01:41 am

Latest Report: Jan 17, 2019 at 12:51 am


Visibility: 9 mi

Pressure: 30.29 "Hg

Humidity: 82%

Dew Point: 27 °F

Location of Woodbridge Green ParkLocation

Past Weather in Woodbridge Green Park — Graph

°F

Woodbridge Green Park Temperature Yesterday

Maximum temperature yesterday: 34 °F (at 2:51 pm)
Minimum temperature yesterday: 31 °F (at 12:51 am)
Average temperature yesterday: 32 °F

High & Low Weather Summary for the Past Weeks

 TemperatureHumidityPressure
High62 °F (Jan 8, 1:51 pm)96% (Jan 6, 7:51 am)30.46 "Hg (Jan 6, 7:51 am)
Low13 °F (Jan 15, 4:51 am)43% (Jan 4, 3:51 pm)29.59 "Hg (Jan 5, 12:51 am)
Average34 °F75%30.15 "Hg
* Reported Jan 2 12:27 am — Jan 17 12:51 am, Woodbridge Green Park. Weather by CustomWeather, © 2019

Note: Actual official high and low records may vary slightly from our data, if they occured in-between our weather recording intervals... More about our weather records

Advertising

Woodbridge Green Park Weather History for the Previous 24 Hours

Scroll right to see more
 ConditionsComfort  
Time TempWeatherWind HumidityBarometerVisibility
12:51 am
Thu, Jan 17
32 °FOvercast.No wind82%30.29 "Hg9 mi
11:51 pm
Wed, Jan 16
32 °FOvercast.No wind85%30.30 "Hg9 mi
10:51 pm32 °FOvercast.5 mph85%30.31 "Hg9 mi
9:51 pm32 °FOvercast.5 mph85%30.31 "Hg10 mi
8:51 pm33 °FOvercast.3 mph82%30.29 "Hg10 mi
7:51 pm33 °FOvercast.3 mph82%30.30 "Hg10 mi
6:51 pm33 °FOvercast.5 mph82%30.29 "Hg10 mi
5:51 pm34 °FOvercast.5 mph79%30.28 "Hg10 mi
4:51 pm34 °FOvercast.9 mph79%30.27 "Hg9 mi
3:51 pm34 °FOvercast.7 mph79%30.25 "Hg9 mi
2:51 pm34 °FOvercast.7 mph79%30.24 "Hg9 mi
1:51 pm33 °FMore clouds than sun.7 mph82%30.23 "Hg9 mi
12:51 pm33 °FOvercast.7 mph82%30.24 "Hg8 mi
11:51 am32 °FMostly cloudy.9 mph85%30.26 "Hg9 mi
10:51 am32 °FOvercast.7 mph85%30.26 "Hg7 mi
9:51 am32 °FIce fog.8 mph85%30.24 "Hg6 mi
8:51 am31 °FOvercast.8 mph89%30.23 "Hg7 mi
8:28 am31 °FIce fog.10 mph89%30.20 "Hg6 mi
7:51 am31 °FLight freezing rain. Ice fog.13 mph89%30.22 "Hg5 mi
7:23 am32 °FMostly cloudy.12 mph85%30.18 "Hg9 mi
6:51 am32 °FLight snow. Ice fog.15 mph88%30.19 "Hg5 mi
6:38 am32 °FLight snow. Ice fog.13 mph92%30.16 "Hg4 mi
6:14 am33 °FDrizzle. Fog.7 mph92%30.15 "Hg2 mi
5:51 am33 °FDrizzle. Fog.7 mph92%30.16 "Hg2 mi
5:23 am33 °FDrizzle. Fog.10 mph92%30.13 "Hg2 mi
5:01 am32 °FLight freezing rain. Ice fog.7 mph96%30.13 "Hg2 mi
3:51 am32 °FLight freezing rain. Ice fog.10 mph92%30.14 "Hg2 mi
2:51 am31 °FLight freezing rain. Ice fog.10 mph92%30.15 "Hg2 mi
2:11 am31 °FLight freezing rain. Ice fog.10 mph92%30.12 "Hg2 mi
Weather by CustomWeather, © 2019

See weather overview